Location: Arroyo de Valdeoliva
(40.1604°N, 4.9878°W)
Time: 04:36:07
(UTC+00:00)

Cosmos 1825 Rocket - Pass Details

Date: 20 March 2026
Orbit: 596 x 623 km, 82.5° (Epoch: 15 April)

Event Time Altitude Azimuth Distance (km) Brightness Sun altitude
Rises 05:32:57 0° 351° (N) 2,890 7.0 -10.5°
Reaches altitude 10° 05:35:11 10° 350° (N) 1,977 6.1 -10.1°
Maximum altitude 05:39:33 80° 264° (W) 622 3.5 -9.2°
Drops below altitude 10° 05:43:52 10° 178° (S) 1,944 6.1 -8.4°
Sets 05:46:03 0° 177° (S) 2,839 6.9 -8.0°
